When you browse on this site, cookies collect data to enhance your experience and personalize the content and advertising you see.
Visit our Privacy Policy to learn more. By continuing to use the site, you agree to this use of cookies and data.
  • Em Portugal
  • Lista de países
  • Para 7 dias
  • Temperatura da água
  • Mapa do tempo
  • Widgets de tempo
  • user-avatar
    Iniciar Sessão

    Previsão horária em Merida

    Hoje, 21 Agosto, Quarta-feira

    Tempo Temperatura Precipitação Vento Pressão Humidade
    00:00 +23°C° 0 mm 1 m/s 741 mmHg 28%
    01:00 +22°C° 0 mm 1 m/s 741 mmHg 32%
    02:00 +21°C° 0 mm 1 m/s 741 mmHg 36%
    03:00 +20°C° 0 mm 1 m/s 741 mmHg 39%
    04:00 +20°C° 0 mm 1 m/s 741 mmHg 44%
    05:00 +20°C° 0 mm 1 m/s 742 mmHg 49%
    06:00 +19°C° 0 mm 1 m/s 742 mmHg 53%
    07:00 +23°C° 0 mm 1 m/s 742 mmHg 44%
    08:00 +26°C° 0 mm 2 m/s 742 mmHg 35%
    09:00 +29°C° 0 mm 2 m/s 742 mmHg 26%
    10:00 +32°C° 0 mm 1 m/s 742 mmHg 21%
    11:00 +34°C° 0 mm 1 m/s 742 mmHg 17%
    12:00 +36°C° 0 mm 1 m/s 742 mmHg 13%
    13:00 +37°C° 0 mm 1 m/s 741 mmHg 13%
    14:00 +37°C° 0 mm 1 m/s 741 mmHg 12%
    15:00 +39°C° 0 mm 2 m/s 740 mmHg 12%
    16:00 +38°C° 0 mm 2 m/s 740 mmHg 12%
    17:00 +38°C° 0 mm 2 m/s 740 mmHg 12%
    18:00 +37°C° 0 mm 2 m/s 740 mmHg 12%
    19:00 +34°C° 0 mm 2 m/s 741 mmHg 15%
    20:00 +30°C° 0 mm 2 m/s 741 mmHg 19%
    21:00 +28°C° 0 mm 1 m/s 741 mmHg 22%
    22:00 +27°C° 0 mm 2 m/s 741 mmHg 28%
    23:00 +26°C° 0 mm 2 m/s 742 mmHg 35%

    Amanhã, 22 Agosto, Quinta-feira

    Tempo Temperatura Precipitação Vento Pressão Humidade
    00:00 +25°C° 0 mm 2 m/s 742 mmHg 42%
    01:00 +25°C° 0 mm 2 m/s 742 mmHg 47%
    02:00 +24°C° 0 mm 2 m/s 742 mmHg 53%
    03:00 +23°C° 0 mm 2 m/s 742 mmHg 58%
    04:00 +23°C° 0 mm 2 m/s 742 mmHg 61%
    05:00 +23°C° 0 mm 2 m/s 742 mmHg 64%
    06:00 +23°C° 0 mm 2 m/s 742 mmHg 66%
    07:00 +25°C° 0 mm 3 m/s 742 mmHg 59%
    08:00 +28°C° 0 mm 3 m/s 743 mmHg 51%
    09:00 +32°C° 0 mm 4 m/s 743 mmHg 43%
    10:00 +34°C° 0 mm 4 m/s 742 mmHg 36%
    11:00 +36°C° 0 mm 4 m/s 742 mmHg 29%
    12:00 +38°C° 0 mm 3 m/s 742 mmHg 22%
    13:00 +39°C° 0 mm 3 m/s 741 mmHg 20%
    14:00 +40°C° 0 mm 3 m/s 741 mmHg 17%
    15:00 +42°C° 0 mm 3 m/s 740 mmHg 15%
    16:00 +40°C° 0 mm 2 m/s 740 mmHg 15%
    17:00 +40°C° 0 mm 2 m/s 740 mmHg 15%
    18:00 +40°C° 0 mm 2 m/s 740 mmHg 16%
    19:00 +37°C° 0 mm 2 m/s 740 mmHg 19%
    20:00 +35°C° 0 mm 3 m/s 741 mmHg 23%
    21:00 +33°C° 0 mm 4 m/s 741 mmHg 26%
    22:00 +30°C° 0 mm 3 m/s 741 mmHg 32%
    23:00 +28°C° 0 mm 3 m/s 741 mmHg 38%

    Depois de amanhã, 23 Agosto, Sexta-feira

    Tempo Temperatura Precipitação Vento Pressão Humidade
    00:00 +26°C° 0 mm 3 m/s 741 mmHg 44%
    01:00 +25°C° 0 mm 2 m/s 741 mmHg 47%
    02:00 +25°C° 0 mm 2 m/s 741 mmHg 50%
    03:00 +24°C° 0 mm 2 m/s 741 mmHg 53%
    04:00 +23°C° 0 mm 2 m/s 741 mmHg 54%
    05:00 +23°C° 0 mm 2 m/s 741 mmHg 55%
    06:00 +22°C° 0 mm 1 m/s 742 mmHg 57%
    07:00 +25°C° 0 mm 2 m/s 742 mmHg 47%
    08:00 +28°C° 0 mm 3 m/s 742 mmHg 38%
    09:00 +31°C° 0 mm 3 m/s 743 mmHg 29%
    10:00 +34°C° 0 mm 3 m/s 742 mmHg 26%
    11:00 +37°C° 0 mm 3 m/s 742 mmHg 23%
    12:00 +39°C° 0 mm 3 m/s 742 mmHg 21%
    13:00 +39°C° 0 mm 3 m/s 741 mmHg 20%
    14:00 +40°C° 0 mm 2 m/s 741 mmHg 18%
    15:00 +41°C° 0 mm 2 m/s 740 mmHg 17%
    16:00 +41°C° 0 mm 2 m/s 740 mmHg 17%
    17:00 +40°C° 0 mm 2 m/s 740 mmHg 17%
    18:00 +40°C° 0 mm 2 m/s 740 mmHg 17%
    19:00 +37°C° 0 mm 2 m/s 740 mmHg 20%
    20:00 +34°C° 0 mm 2 m/s 740 mmHg 22%
    21:00 +31°C° 0 mm 2 m/s 741 mmHg 25%
    22:00 +29°C° 0 mm 2 m/s 741 mmHg 30%
    23:00 +28°C° 0 mm 2 m/s 741 mmHg 35%

    24 Agosto, Sábado

    Tempo Temperatura Precipitação Vento Pressão Humidade
    00:00 +26°C° 0 mm 2 m/s 741 mmHg 40%
    01:00 +25°C° 0 mm 2 m/s 741 mmHg 45%
    02:00 +24°C° 0 mm 1 m/s 741 mmHg 49%
    03:00 +23°C° 0 mm 1 m/s 740 mmHg 54%
    04:00 +23°C° 0 mm 1 m/s 741 mmHg 54%
    05:00 +22°C° 0 mm 1 m/s 741 mmHg 55%
    06:00 +22°C° 0 mm 1 m/s 741 mmHg 55%
    07:00 +25°C° 0 mm 1 m/s 741 mmHg 47%
    08:00 +28°C° 0 mm 1 m/s 741 mmHg 39%
    09:00 +31°C° 0 mm 2 m/s 741 mmHg 31%
    10:00 +35°C° 0 mm 2 m/s 741 mmHg 27%
    11:00 +37°C° 0 mm 2 m/s 741 mmHg 23%
    12:00 +39°C° 0 mm 2 m/s 741 mmHg 19%
    13:00 +40°C° 0 mm 3 m/s 740 mmHg 17%
    14:00 +42°C° 0 mm 3 m/s 740 mmHg 16%
    15:00 +43°C° 0 mm 4 m/s 739 mmHg 14%
    16:00 +42°C° 0 mm 4 m/s 739 mmHg 15%
    17:00 +41°C° 0 mm 5 m/s 739 mmHg 15%
    18:00 +41°C° 0 mm 5 m/s 739 mmHg 16%
    19:00 +37°C° 0 mm 4 m/s 739 mmHg 20%
    20:00 +33°C° 0 mm 3 m/s 739 mmHg 24%
    21:00 +29°C° 0 mm 2 m/s 740 mmHg 29%
    22:00 +28°C° 0 mm 2 m/s 740 mmHg 32%
    23:00 +27°C° 0 mm 2 m/s 740 mmHg 35%

    25 Agosto, Domingo

    Tempo Temperatura Precipitação Vento Pressão Humidade
    00:00 +25°C° 0 mm 2 m/s 740 mmHg 39%
    01:00 +24°C° 0 mm 1 m/s 739 mmHg 41%
    02:00 +23°C° 0 mm 1 m/s 739 mmHg 44%
    03:00 +23°C° 0 mm 1 m/s 739 mmHg 46%
    04:00 +22°C° 0 mm 1 m/s 739 mmHg 48%
    05:00 +22°C° 0 mm 1 m/s 740 mmHg 49%
    06:00 +21°C° 0 mm 1 m/s 740 mmHg 51%
    07:00 +24°C° 0 mm 1 m/s 740 mmHg 44%
    08:00 +26°C° 0 mm 2 m/s 740 mmHg 38%
    09:00 +29°C° 0 mm 2 m/s 740 mmHg 31%
    10:00 +31°C° 0 mm 2 m/s 740 mmHg 27%
    11:00 +35°C° 0 mm 3 m/s 740 mmHg 23%
    12:00 +37°C° 0 mm 3 m/s 740 mmHg 19%
    13:00 +38°C° 0 mm 4 m/s 739 mmHg 17%
    14:00 +38°C° 0 mm 4 m/s 739 mmHg 15%
    15:00 +40°C° 0 mm 5 m/s 738 mmHg 13%
    16:00 +39°C° 0 mm 5 m/s 738 mmHg 12%
    17:00 +37°C° 0 mm 5 m/s 738 mmHg 12%
    18:00 +35°C° 0 mm 5 m/s 738 mmHg 11%
    19:00 +32°C° 0 mm 4 m/s 739 mmHg 16%
    20:00 +28°C° 0 mm 4 m/s 739 mmHg 21%
    21:00 +25°C° 0 mm 3 m/s 739 mmHg 25%
    22:00 +22°C° 0 mm 3 m/s 740 mmHg 32%
    23:00 +21°C° 0 mm 2 m/s 740 mmHg 39%

    26 Agosto, Segunda-feira

    Tempo Temperatura Precipitação Vento Pressão Humidade
    00:00 +19°C° 0 mm 2 m/s 740 mmHg 45%
    01:00 +18°C° 0 mm 2 m/s 740 mmHg 51%
    02:00 +18°C° 0 mm 1 m/s 739 mmHg 57%
    03:00 +16°C° 0 mm 1 m/s 739 mmHg 63%
    04:00 +16°C° 0 mm 1 m/s 740 mmHg 65%
    05:00 +15°C° 0 mm 1 m/s 740 mmHg 68%
    06:00 +15°C° 0 mm 1 m/s 740 mmHg 71%
    07:00 +19°C° 0 mm 1 m/s 740 mmHg 58%
    08:00 +23°C° 0 mm 1 m/s 741 mmHg 45%
    09:00 +26°C° 0 mm 1 m/s 741 mmHg 32%
    10:00 +30°C° 0 mm 1 m/s 741 mmHg 25%
    11:00 +33°C° 0 mm 1 m/s 741 mmHg 19%
    12:00 +36°C° 0 mm 1 m/s 741 mmHg 12%
    13:00 +37°C° 0 mm 1 m/s 740 mmHg 11%
    14:00 +39°C° 0 mm 1 m/s 740 mmHg 10%
    15:00 +40°C° 0 mm 1 m/s 739 mmHg 9%
    16:00 +40°C° 0 mm 2 m/s 739 mmHg 10%
    17:00 +39°C° 0 mm 2 m/s 739 mmHg 10%
    18:00 +39°C° 0 mm 3 m/s 739 mmHg 11%
    19:00 +36°C° 0 mm 3 m/s 740 mmHg 15%
    20:00 +33°C° 0 mm 3 m/s 741 mmHg 19%
    21:00 +28°C° 0 mm 3 m/s 741 mmHg 23%
    22:00 +27°C° 0 mm 2 m/s 741 mmHg 31%
    23:00 +26°C° 0 mm 2 m/s 742 mmHg 39%
    Mostrar mais